Corbin, Kentucky, United States (40701)
Lat: 36.95N, Lon: 84.1W
Wx Zone: KYZ085
Local Info
Past Weather Observations for Today

NOTE: This archive is for the closest National Weather Service station to Corbin. Information may differ from the station used for current weather conditions.

Click here for Long-term Archive

Time Weather Temperature Dewpoint Humidity Pressure Winds Precip Visibility
20:53
Overcast
37°F / 3°C 34°F / 1°C 87% 30.01 in
(1016 mb)
NW 8.1 mph
(NW 13 kph)
0.01 in
(0.25 mm)
10SM
20:26
Overcast
Light Rain
37°F / 3°C 34°F / 1°C 87% 30.01 in
(1016 mb)
NW 8.1 mph
(NW 13 kph)
0.01 in
(0.25 mm)
10SM
20:03
Overcast
Light Rain
37°F / 3°C 34°F / 1°C 87% 30.01 in
(1016 mb)
WNW 8.1 mph
(WNW 13 kph)
0.00 in
(0.00 mm)
7SM
19:53
Overcast
Light Rain
37°F / 3°C 34°F / 1°C 87% 30.01 in
(1016 mb)
NW 9.2 mph
(NW 15 kph)
0.01 in
(0.25 mm)
5SM
18:31
Overcast
Light Rain
37°F / 3°C 34°F / 1°C 87% 30.01 in
(1016 mb)
NNW 10.4 mph
(NNW 17 kph)
0.01 in
(0.25 mm)
10SM
17:53
Overcast
Light Rain
37°F / 3°C 34°F / 1°C 87% 29.98 in
(1015 mb)
NW 15 mph
(NW 24 kph)
0.02 in
(0.51 mm)
10SM
16:53
Overcast
Light Rain
39°F / 4°C 36°F / 2°C 87% 29.95 in
(1014 mb)
NW 16.1 mph
(NW 26 kph)
0.04 in
(1.02 mm)
10SM
16:42
Overcast
Light Rain
41°F / 5°C 36°F / 2°C 81% 29.92 in
(1013 mb)
NW 18.4 mph
(NW 30 kph)
0.04 in
(1.02 mm)
10SM
16:14
Overcast
Light Rain
45°F / 7°C 39°F / 4°C 81% 29.92 in
(1013 mb)
NW 15 mph
(NW 24 kph)
0.02 in
(0.51 mm)
4SM
16:06
Overcast
Light Rain
46°F / 8°C 43°F / 6°C 87% 29.89 in
(1012 mb)
NW 11.5 mph
(NW 19 kph)
0.02 in
(0.51 mm)
3SM
15:53
Overcast
Light Rain
46°F / 8°C 43°F / 6°C 87% 29.89 in
(1012 mb)
WNW 8.1 mph
(WNW 13 kph)
0.01 in
(0.25 mm)
4SM
15:34
Overcast
Light Rain
46°F / 8°C 43°F / 6°C 87% 29.89 in
(1012 mb)
WNW 8.1 mph
(WNW 13 kph)
0.00 in
(0.00 mm)
7SM
15:16
Overcast
Fog And Mist
46°F / 8°C 43°F / 6°C 87% 29.89 in
(1012 mb)
W 5.8 mph
(W 9 kph)
0.00 in
(0.00 mm)
6SM
14:53
Overcast
Light Rain
46°F / 8°C 43°F / 6°C 87% 29.89 in
(1012 mb)
W 9.2 mph
(W 15 kph)
0.01 in
(0.25 mm)
5SM
14:33
Overcast
Light Rain
46°F / 8°C 43°F / 6°C 87% 29.92 in
(1013 mb)
WNW 9.2 mph
(WNW 15 kph)
0.01 in
(0.25 mm)
3SM
14:26
Overcast
Light Rain
46°F / 8°C 43°F / 6°C 87% 29.92 in
(1013 mb)
W 6.9 mph
(W 11 kph)
0.01 in
(0.25 mm)
2 1/2SM
13:53
Overcast
Fog And Mist
46°F / 8°C 43°F / 6°C 87% 29.92 in
(1013 mb)
WNW 8.1 mph
(WNW 13 kph)
- 4SM
13:49
Overcast
Fog And Mist
46°F / 8°C 43°F / 6°C 87% 29.92 in
(1013 mb)
W 8.1 mph
(W 13 kph)
- 3SM
13:26
Overcast
Fog And Mist
46°F / 8°C 43°F / 6°C 87% 29.92 in
(1013 mb)
W 8.1 mph
(W 13 kph)
- 4SM
12:53
Overcast
Fog And Mist
46°F / 8°C 43°F / 6°C 87% 29.92 in
(1013 mb)
W 5.8 mph
(W 9 kph)
0.00 in
(0.00 mm)
4SM
11:53
Overcast
Light Rain
46°F / 8°C 43°F / 6°C 87% 29.98 in
(1015 mb)
W 6.9 mph
(W 11 kph)
0.01 in
(0.25 mm)
9SM
11:50
Overcast
Light Rain
46°F / 8°C 43°F / 6°C 87% 29.98 in
(1015 mb)
W 6.9 mph
(W 11 kph)
0.01 in
(0.25 mm)
9SM
11:39
Overcast
Light Rain
46°F / 8°C 43°F / 6°C 87% 29.98 in
(1015 mb)
WNW 5.8 mph
(WNW 9 kph)
0.01 in
(0.25 mm)
8SM
11:20
Overcast
Light Rain
46°F / 8°C 43°F / 6°C 87% 29.98 in
(1015 mb)
WNW 6.9 mph
(WNW 11 kph)
0.01 in
(0.25 mm)
9SM
11:08
Overcast
Light Rain
46°F / 8°C 43°F / 6°C 87% 29.98 in
(1015 mb)
NW 5.8 mph
(NW 9 kph)
0.01 in
(0.25 mm)
7SM
10:53
Overcast
Light Rain
45°F / 7°C 41°F / 5°C 87% 29.98 in
(1015 mb)
WNW 4.6 mph
(WNW 7 kph)
0.04 in
(1.02 mm)
5SM
09:53
Overcast
Light Rain
45°F / 7°C 39°F / 4°C 81% 30.01 in
(1016 mb)
SSW 3.5 mph
(SSW 6 kph)
0.04 in
(1.02 mm)
5SM
08:53
Overcast
Light Rain
45°F / 7°C 39°F / 4°C 81% 30.01 in
(1016 mb)
Calm 0.02 in
(0.51 mm)
6SM
07:53
Overcast
Light Rain
43°F / 6°C 39°F / 4°C 87% 30.01 in
(1016 mb)
SSW 3.5 mph
(SSW 6 kph)
0.00 in
(0.00 mm)
6SM
06:53
Overcast
43°F / 6°C 37°F / 3°C 81% 29.98 in
(1015 mb)
Calm - 10SM
05:53
Overcast
43°F / 6°C 39°F / 4°C 87% 29.98 in
(1015 mb)
Calm 0.00 in
(0.00 mm)
10SM
04:53
Overcast
Light Rain
43°F / 6°C 37°F / 3°C 81% 29.98 in
(1015 mb)
Calm 0.00 in
(0.00 mm)
10SM
02:53
Overcast
39°F / 4°C 36°F / 2°C 87% 30.01 in
(1016 mb)
Calm - 10SM
01:53
Mostly Cloudy
39°F / 4°C 36°F / 2°C 87% 30.01 in
(1016 mb)
Calm - 10SM
00:53
Clear
39°F / 4°C 36°F / 2°C 87% 30.04 in
(1017 mb)
Calm - 10SM
Time Weather Temperature Dewpoint Humidity Pressure Winds Precip Visibility


Weather for websites

WeatherForYou.com, LLC is not responsible for any damages or problems caused by this service. Current weather conditions are obtained from the closest station including government and personal stations which may have varying degrees of accuracy. Weather forecasts are derived from the NOAA NDFD. Like all things, this site belongs to Jesus Christ... He just trusts me to maintain it. If you have any questions or comments email webmaster@weatherforyou.com

Copyright © 2014, WeatherForYou.com LLC. All rights reserved.